Weather History for Roswell, NM

Change the Weather History Date:

Friday, January 31, 2014

  Actual Average Record
Temperature  
Mean Temperature 68 °F 43 °F  
Max Temperature 84 °F 58 °F 88 °F (1893)
Min Temperature 51 °F 28 °F 2 °F (1949)
Cooling Degree Days 2 0  
Month to date cooling degree days 0 0  
Year to date cooling degree days 0 0  
Growing Degree Days 18 (Base 50)    
Moisture  
Dew Point 25 °F    
Average Humidity 26    
Maximum Humidity 41    
Minimum Humidity 11    
Precipitation  
Precipitation 0.00 in 0.01 in 0.20 in (1978)
Month to date precipitation 0.00 0.38  
Year to date precipitation 0.00 0.38  
Sea Level Pressure  
Sea Level Pressure 29.57 in    
Wind  
Wind Speed 11 mph (SSW)    
Max Wind Speed 28 mph    
Max Gust Speed 33 mph    
Visibility 10 miles    
Events      
T = Trace of Precipitation, MM = Missing Value Source: NWS Daily Summary

Daily Weather History Graph

Daily Weather History Graph

Search for Another Location

Airport:

Trip Planner

Search our weather history database for the weather conditions in past years. The results will help you decide how hot, cold, wet, or windy it might be!

Date:

Astronomy

Jan. 31, 2014 Rise Set
Actual Time 6:54 AM MST 5:29 PM MST
Civil Twilight 6:28 AM MST 5:55 PM MST
Nautical Twilight 5:58 AM MST 6:24 PM MST
Astronomical Twilight 5:29 AM MST 6:54 PM MST
Moon 7:11 AM MST (1/31) 6:49 PM MST (1/31)
Length of Visible Light 11h 26m
Length of Day
10h 34m
New Moon, 1% of the Moon is Illuminated
Jan 31
New Moon
Feb 6
First Quarter
Feb 14
Full
Feb 22
Last Quarter
Mar 1
New

Hourly Weather History & Observations

Time (MST) Temp. Dew Point Humidity Pressure Visibility Wind Dir Wind Speed Gust Speed Precip Events Conditions
12:51 AM 57.9 °F 19.9 °F 23% 29.60 in 10.0 mi SSW 5.8 mph - N/A   Clear
1:51 AM 64.9 °F 19.9 °F 18% 29.58 in 10.0 mi SSW 9.2 mph - N/A   Clear
2:51 AM 64.9 °F 21.0 °F 19% 29.58 in 10.0 mi South 4.6 mph - N/A   Clear
3:51 AM 55.0 °F 21.0 °F 27% 29.57 in 10.0 mi South 4.6 mph - N/A   Clear
4:51 AM 66.0 °F 21.9 °F 19% 29.55 in 10.0 mi Calm Calm - N/A   Clear
5:51 AM 60.1 °F 23.0 °F 24% 29.63 in 10.0 mi Variable 3.5 mph - N/A   Clear
6:51 AM 66.0 °F 24.1 °F 20% 29.64 in 10.0 mi South 5.8 mph - N/A   Clear
7:51 AM 66.9 °F 24.1 °F 20% 29.65 in 10.0 mi SSE 5.8 mph - N/A   Clear
8:51 AM 70.0 °F 26.1 °F 19% 29.65 in 10.0 mi SE 6.9 mph - N/A   Clear
9:51 AM 75.0 °F 27.0 °F 17% 29.64 in 10.0 mi SSE 8.1 mph - N/A   Clear
10:51 AM 80.1 °F 26.1 °F 14% 29.61 in 10.0 mi South 13.8 mph - N/A   Clear
11:51 AM 84.9 °F 25.0 °F 11% 29.57 in 10.0 mi SW 15.0 mph 21.9 mph N/A   Clear
12:51 PM 72.0 °F 26.1 °F 18% 29.56 in 10.0 mi SW 13.8 mph - N/A   Clear
1:51 PM - - N/A% 29.68 in 10.0 mi SW 19.6 mph 24.2 mph N/A   Clear
2:51 PM 73.0 °F 25.0 °F 17% 29.50 in 10.0 mi WSW 19.6 mph - N/A   Clear
3:51 PM 72.0 °F 25.0 °F 17% 29.51 in 10.0 mi SSW 21.9 mph 29.9 mph N/A   Clear
4:51 PM 69.1 °F 25.0 °F 19% 29.50 in 10.0 mi SSW 23.0 mph 31.1 mph N/A   Clear
5:51 PM 62.1 °F 25.0 °F 24% 29.55 in 10.0 mi SSW 15.0 mph - N/A   Clear
6:51 PM 57.9 °F 26.1 °F 30% 29.55 in 10.0 mi South 15.0 mph - N/A   Clear
7:51 PM 59.0 °F 28.0 °F 31% 29.54 in 10.0 mi South 16.1 mph - N/A   Clear
8:51 PM 59.0 °F 28.9 °F 32% 29.54 in 10.0 mi SSW 15.0 mph - N/A   Clear
9:51 PM 54.0 °F 28.9 °F 38% 29.54 in 10.0 mi SSW 9.2 mph - N/A   Clear
10:51 PM 51.1 °F 28.9 °F 43% 29.55 in 10.0 mi SSW 5.8 mph - N/A   Clear
11:51 PM 53.1 °F 28.9 °F 40% 29.54 in 10.0 mi West 4.6 mph - N/A   Clear